Weather History for KMKO - April, 2014

Change the Weather History Date:

Monday, April 21, 2014

  Actual Average Record
Temperature  
Mean Temperature 64 °F -  
Max Temperature 72 °F 70 °F 82 °F (2005)
Min Temperature 57 °F 49 °F 37 °F (1998)
Degree Days  
Heating Degree Days 1    
Growing Degree Days 14 (Base 50)    
Moisture  
Dew Point 59 °F    
Average Humidity 91    
Maximum Humidity 100    
Minimum Humidity 68    
Precipitation  
Precipitation 0.18 in - - ()
Sea Level Pressure  
Sea Level Pressure 30.01 in    
Wind  
Wind Speed 3 mph (SE)    
Max Wind Speed 9 mph    
Max Gust Speed -    
Visibility 5 miles    
Events Fog , Rain    
Averages and records for this station are not official NWS values.
T = Trace of Precipitation, MM = Missing Value Source: NWS Daily Summary

Daily Weather History Graph

Daily Weather History Graph

Search for Another Location

Airport or City:

Trip Planner

Search our weather history database for the weather conditions in past years. The results will help you decide how hot, cold, wet, or windy it might be!

Date:

Astronomy

Apr. 21, 2014 Rise Set
Actual Time 6:41 AM CDT 7:59 PM CDT
Civil Twilight 6:14 AM CDT 8:26 PM CDT
Nautical Twilight 5:42 AM CDT 8:58 PM CDT
Astronomical Twilight 5:09 AM CDT 9:31 PM CDT
Moon 1:27 AM CDT (4/21) 12:11 PM CDT (4/21)
Length of Visible Light 14h 12m
Length of Day
13h 18m
Waning Gibbous, 57% of the Moon is Illuminated
Apr 21
Waning Gibbous
Apr 22
Last Quarter
Apr 29
New
May 6
First Quarter
May 14
Full

Hourly Weather History & Observations

Time (CDT) Temp. Dew Point Humidity Pressure Visibility Wind Dir Wind Speed Gust Speed Precip Events Conditions
12:53 AM 60.1 °F 59.0 °F 96% 30.03 in 3.0 mi Calm Calm - N/A   Clear
1:06 AM 60.1 °F 59.0 °F 96% 30.05 in 2.5 mi Calm Calm - N/A   Clear
1:13 AM 60.1 °F 59.0 °F 96% 30.05 in 3.0 mi Calm Calm - N/A   Clear
1:17 AM 60.1 °F 59.0 °F 96% 30.05 in 1.8 mi Calm Calm - N/A   Clear
1:20 AM 59.0 °F 59.0 °F 100% 30.05 in 0.8 mi SE 3.5 mph - N/A   Clear
1:30 AM 57.9 °F 57.9 °F 100% 30.04 in 0.2 mi ESE 4.6 mph - N/A Fog Fog
1:39 AM 57.9 °F 57.9 °F 100% 30.04 in 1.0 mi ESE 4.6 mph - N/A   Mist
1:41 AM 59.0 °F 57.9 °F 96% 30.04 in 1.5 mi ESE 4.6 mph - N/A   Partly Cloudy
1:45 AM 57.9 °F 57.9 °F 100% 30.04 in 3.0 mi ESE 4.6 mph - N/A   Partly Cloudy
1:53 AM 57.9 °F 57.9 °F 100% 30.02 in 4.0 mi ESE 4.6 mph - N/A   Clear
2:36 AM 57.0 °F 57.0 °F 100% 30.04 in 1.8 mi SSE 4.6 mph - N/A   Clear
2:53 AM 57.9 °F 57.9 °F 100% 30.02 in 1.5 mi SSE 3.5 mph - N/A   Clear
3:06 AM 57.0 °F 57.0 °F 100% 30.03 in 0.8 mi SE 5.8 mph - N/A   Clear
3:18 AM 57.9 °F 57.9 °F 100% 30.03 in 1.0 mi Calm Calm - N/A   Clear
3:35 AM 57.9 °F 57.9 °F 100% 30.02 in 0.5 mi Calm Calm - N/A Fog Fog
3:53 AM 57.0 °F 55.9 °F 96% 30.01 in 0.2 mi Calm Calm - N/A Fog Fog
4:15 AM 57.9 °F 57.0 °F 97% 30.03 in 0.5 mi SSE 3.5 mph - N/A Fog Fog
4:26 AM 57.0 °F 55.9 °F 96% 30.03 in 0.2 mi SSE 3.5 mph - N/A Fog Fog
4:51 AM 57.2 °F 57.2 °F 100% 30.03 in 0.5 mi SSE 3.5 mph - N/A Fog Fog
4:53 AM 57.9 °F 57.9 °F 100% 30.01 in 0.8 mi Calm Calm - N/A   Overcast
5:09 AM 57.9 °F 57.9 °F 100% 30.02 in 0.5 mi Calm Calm - N/A Fog Fog
5:35 AM 59.0 °F 57.9 °F 96% 30.02 in 1.5 mi SE 4.6 mph - N/A   Overcast
5:44 AM 59.0 °F 57.9 °F 96% 30.01 in 3.0 mi SE 4.6 mph - N/A   Overcast
5:53 AM 59.0 °F 59.0 °F 100% 29.99 in 3.0 mi ESE 5.8 mph - N/A   Overcast
6:53 AM 60.1 °F 59.0 °F 96% 30.01 in 4.0 mi SSE 3.5 mph - N/A   Overcast
7:39 AM 61.0 °F 60.1 °F 97% 30.04 in 3.0 mi South 3.5 mph - N/A   Overcast
7:53 AM 61.0 °F 59.0 °F 93% 30.03 in 4.0 mi South 4.6 mph - N/A   Overcast
8:21 AM 61.0 °F 60.1 °F 97% 30.04 in 2.5 mi SSE 6.9 mph - 0.02 in Rain Light Rain
8:31 AM 61.0 °F 60.1 °F 97% 30.04 in 1.2 mi SSE 6.9 mph - 0.07 in Rain Heavy Rain
8:45 AM 61.0 °F 60.1 °F 97% 30.04 in 2.0 mi SE 4.6 mph - 0.13 in Rain Light Rain
8:53 AM 61.0 °F 60.1 °F 97% 30.03 in 2.5 mi SE 4.6 mph - 0.14 in Rain Rain
9:02 AM 61.0 °F 60.1 °F 97% 30.04 in 4.0 mi SE 3.5 mph - 0.00 in Rain Light Rain
9:53 AM 63.0 °F 62.1 °F 97% 30.02 in 6.0 mi SE 6.9 mph - 0.00 in   Overcast
10:44 AM 64.0 °F 61.0 °F 90% 30.04 in 8.0 mi ESE 4.6 mph - 0.00 in Rain Light Rain
10:53 AM 64.0 °F 62.1 °F 93% 30.03 in 7.0 mi SSE 5.8 mph - 0.00 in Rain Light Rain
11:53 AM 64.0 °F 61.0 °F 90% 30.04 in 5.0 mi SSE 5.8 mph - 0.01 in Rain Light Rain
12:53 PM 64.0 °F 61.0 °F 90% 30.03 in 6.0 mi South 4.6 mph - 0.02 in Rain Light Rain
1:19 PM 64.9 °F 62.1 °F 90% 30.03 in 9.0 mi Variable 3.5 mph - 0.01 in Rain Light Rain
1:33 PM 64.9 °F 62.1 °F 90% 30.02 in 10.0 mi Variable 4.6 mph - 0.01 in Rain Light Rain
1:53 PM 64.9 °F 61.0 °F 87% 30.01 in 10.0 mi South 3.5 mph - 0.01 in Rain Light Rain
2:00 PM 64.9 °F 61.0 °F 87% 30.02 in 10.0 mi Calm Calm - 0.00 in Rain Light Rain
2:53 PM 66.9 °F 60.1 °F 79% 29.99 in 10.0 mi Calm Calm - 0.00 in   Mostly Cloudy
3:03 PM 68.0 °F 62.1 °F 81% 30.00 in 10.0 mi ESE 4.6 mph - N/A   Mostly Cloudy
3:14 PM 69.1 °F 62.1 °F 78% 29.99 in 10.0 mi Variable 4.6 mph - N/A   Mostly Cloudy
3:37 PM 69.1 °F 60.1 °F 73% 29.99 in 10.0 mi Calm Calm - N/A   Mostly Cloudy
3:53 PM 69.1 °F 60.1 °F 73% 29.97 in 10.0 mi Calm Calm - 0.00 in Rain Light Rain
4:19 PM 70.0 °F 60.1 °F 71% 29.97 in 10.0 mi Variable 3.5 mph - 0.00 in   Mostly Cloudy
4:53 PM 71.1 °F 61.0 °F 70% 29.95 in 10.0 mi SSW 5.8 mph - 0.00 in   Partly Cloudy
5:36 PM 70.0 °F 60.1 °F 71% 29.97 in 10.0 mi West 3.5 mph - N/A   Mostly Cloudy
5:53 PM 71.1 °F 60.1 °F 68% 29.96 in 10.0 mi WNW 4.6 mph - N/A   Mostly Cloudy
6:00 PM 71.1 °F 60.1 °F 68% 29.97 in 10.0 mi WNW 4.6 mph - N/A   Mostly Cloudy
6:53 PM 71.1 °F 60.1 °F 68% 29.95 in 10.0 mi WNW 5.8 mph - N/A   Partly Cloudy
7:45 PM 68.0 °F 61.0 °F 78% 29.98 in 10.0 mi NNE 9.2 mph - N/A   Mostly Cloudy
7:53 PM 68.0 °F 61.0 °F 78% 29.97 in 10.0 mi NNE 9.2 mph - N/A   Overcast
8:13 PM 66.0 °F 60.1 °F 81% 29.98 in 10.0 mi NNE 4.6 mph - N/A   Scattered Clouds
8:53 PM 64.0 °F 59.0 °F 84% 29.99 in 10.0 mi North 4.6 mph - N/A   Clear
9:53 PM 62.1 °F 60.1 °F 93% 30.00 in 10.0 mi Calm Calm - N/A   Clear
10:53 PM 60.1 °F 57.9 °F 93% 30.01 in 10.0 mi WNW 3.5 mph - N/A   Scattered Clouds
11:53 PM 57.9 °F 57.9 °F 100% 30.02 in 5.0 mi Calm Calm - N/A   Clear